{"data":{"norad_id":40376,"epoch":"2026-09-20T04:35:16.890144Z","epoch_age_seconds":44846,"freshness":"FRESH","line1":"1 40376U 15003A   26263.19116771  .00000230  00000+0  53547-4 0  9993","line2":"2 40376  98.1318 268.9569 0001456  90.5984 269.5385 14.63373466621514","mean_motion":14.63373466,"eccentricity":0.0001456,"inclination_deg":98.1318,"raan_deg":268.9569,"arg_perigee_deg":90.5984,"mean_anomaly_deg":269.5385,"bstar":5.3547e-5,"rev_number":62151,"period_min":98.402768224034,"perigee_km":681.27430418814,"apogee_km":683.33030411351,"semimajor_km":7060.4393041508,"source":"CELESTRAK","updated_at":"2026-09-20T09:00:33.963450Z"}}